Content
SEND FEEDBACK

Daily
Averages
Monthly
Summary
Philippines

QUEZON CITY, PHILIPPINES


Home > Asia > Philippines
Elevation: 46 meters     Latitude: 14 39N     Longitude: 121 03E

WEATHER
 
SELECT A DAY
Number of Records: 172,389;   Date Range: 7/1/96 - 7/22/14
 
SHARE

PRINT THIS DATA

[ ← Previous Day ]
WEATHER ALMANAC - 3 FEBRUARY, 2013
[ Next Day → ]
[ °F ]   °C
Weather ElementAverageHighLow
Temperature27.6 °C31 °C (11:00 am)24 °C (6:00 am)
Dewpoint20.6 °C22 °C (1:00 am)18.9 °C (5:00 pm)
Humidity64.9 %89 % (6:00 am)45 % (5:00 pm)
Barometer1015.2 hPa1016.6 hPa (11:00 am)1013.2 hPa (2:00 pm)
Wind Speed13.4 km/h22.2 km/h (3:00 pm)
Weather ElementAverage
Visibility10 km
Wind DirectionE (92.8 °)

Weather ElementTotal
Precipitation---
Cooling Degree Days9.2 (Base 18.3)
Growing Degree Days17.5 (Base 10)
Averaged from 29 records on 3 February, 2013
WEATHER CONDITIONS BREAKOUT
WIND DIRECTION BREAKOUT
WEATHER BY HOUR - 3 FEBRUARY, 2013
[ °F ]   °C
Local TimeTemperatureDewpointHumidityBarometerVisibilityWind DirectionWind SpeedGust SpeedPrecipitationEventsConditions
1:00 AM26 °C22 °C78 %1016.3 hPa10 kmESE (110°)11.1 km/hPartly Cloudy
2:00 AM26.1 °C21.1 °C68 %1015.6 hPa9.7 kmEast (100°)10.8 km/hHaze
2:00 AM26 °C21 °C74 %1015.2 hPa10 kmEast (100°)13 km/hPartly Cloudy
3:00 AM26 °C21 °C74 %1015.2 hPa10 kmEast (100°)11.1 km/hScattered Clouds
4:00 AM26 °C21 °C74 %1014.2 hPa10 kmEast (90°)9.3 km/hPartly Cloudy
5:00 AM25.6 °C21.7 °C75 %1014.6 hPa9.7 kmEast (100°)10.8 km/hHaze
5:00 AM26 °C22 °C78 %1014.2 hPa10 kmEast (100°)9.3 km/hScattered Clouds
6:00 AM24 °C22 °C89 %1015.2 hPa10 kmENE (60°)7.4 km/hScattered Clouds
7:00 AM24 °C21 °C83 %1015.2 hPa10 kmENE (70°)7.4 km/hPartly Cloudy
8:00 AM26.7 °C21.1 °C65 %1015.9 hPa9.7 kmESE (110°)7.2 km/hHaze
8:00 AM27 °C21 °C70 %1016.3 hPa10 kmESE (110°)7.4 km/hPartly Cloudy
9:00 AM28 °C20 °C62 %1016.3 hPa10 kmEast (100°)11.1 km/hScattered Clouds
10:00 AM30 °C21 °C58 %1016.3 hPa10 kmEast (80°)9.3 km/hPartly Cloudy
11:00 AM31 °C21 °C55 %1016.3 hPa10 kmESE (110°)13 km/hPartly Cloudy
11:00 AM30.6 °C21.1 °C48 %1016.6 hPa9.7 kmESE (110°)14.3 km/hPartly Cloudy
12:00 PM31 °C22 °C58 %1015.2 hPa10 kmVariable14.8 km/hPartly Cloudy
1:00 PM31 °C20 °C52 %1014.2 hPa10 kmEast (80°)18.5 km/hPartly Cloudy
2:00 PM31 °C21 °C55 %1013.2 hPa10 kmESE (110°)16.7 km/hPartly Cloudy
3:00 PM31 °C20 °C52 %1013.2 hPa10 kmEast (90°)22.2 km/hScattered Clouds
4:00 PM30 °C19 °C51 %1013.2 hPa10 kmEast (90°)22.2 km/hMostly Cloudy
5:00 PM29 °C19 °C55 %1014.2 hPa10 kmEast (90°)18.5 km/hScattered Clouds
5:00 PM28.9 °C18.9 °C45 %1013.9 hPa9.7 kmEast (90°)18 km/hScattered Clouds
6:00 PM28 °C19 °C58 %1014.2 hPa10 kmEast (100°)14.8 km/hScattered Clouds
7:00 PM27 °C19 °C61 %1015.2 hPa10 kmEast (90°)22.2 km/hScattered Clouds
8:00 PM27 °C19 °C61 %1016.3 hPa10 kmEast (90°)14.8 km/hPartly Cloudy
9:00 PM26 °C21 °C74 %1016.3 hPa10 kmEast (100°)14.8 km/hScattered Clouds
10:00 PM26 °C21 °C74 %1016.3 hPa10 kmESE (110°)13 km/hPartly Cloudy
11:00 PM25.6 °C20.6 °C67 %1016.3 hPa9.7 kmEast (100°)10.8 km/hHaze
11:00 PM26 °C20 °C69 %1016.3 hPa10 kmEast (100°)11.1 km/hPartly Cloudy
Hourly data recorded from RPLL, located 0 kilometers away from Quezon City, Philippines







STORIES FROM OUR PARTNERS